Lid_Strength_Index
1 2 1 1 1 1 1 1 -0 0 -0 -0 -0 -0 -0 0 0 -0 0 1 1 2
1 1 1 0 1 0 0 0 -0 -0 -0 -1 -0 -0 -0 0 0 1 1 1 1 1
0 1 0 0 1 0 -0 1 1 1 1 1 -0 0 0 0 0 0 0 0 0 1
0 0 -0 0 0 1 0 0 1 1 1 1 0 -0 -0 -0 0 0 0 -0 0 0
0 0 0 0 -0 -0 -0 -0 -0 -0 0 1 1 0 0 0 0 0 1 0 0 0
0 0 0 0 0 -0 -0 0 -0 -0 0 0 1 1 1 0 0 0 0 0 0 0
0 0 1 0 0 0 -0 -0 -0 -0 0 1 1 1 1 1 1 1 0 -0 -0 0
1 0 -0 0 1 0 -0 -0 -0 0 0 0 -0 -0 -0 -0 -0 0 0 -0 -0 -0
0 0 0 0 0 0 0 0 -0 0 0 0 1 7 6 1 -0 -0 0 0 0 1
0 1 0 0 0 0 0 -0 0 0 -0 0 -0 8 8 5 -0 -0 0 0 1 2
1 1 0 0 0 0 0 0 0 0 -0 -0 1 9 9 7 1 2 2 1 1 1
1 1 1 1 1 0 0 0 0 -0 -0 0 0 9 10 6 3 4 4 5 4 3
0 1 1 0 0 1 0 0 1 1 0 3 -0 9 10 6 4 4 5 5 5 9
0 0 0 0 0 0 1 1 1 1 1 1 1 2 10 10 3 4 5 5 4 4